Weather History for Hot Springs, AR

Change the Weather History Date:

Saturday, February 18, 2012

  Actual Average Record
Temperature  
Mean Temperature 49 °F -  
Max Temperature 52 °F 56 °F 81 °F (1986)
Min Temperature 46 °F 34 °F 13 °F (1980)
Degree Days  
Heating Degree Days 16    
Moisture  
Dew Point 37 °F    
Average Humidity 65    
Maximum Humidity 83    
Minimum Humidity 49    
Precipitation  
Precipitation 0.01 in - - ()
Sea Level Pressure  
Sea Level Pressure 29.99 in    
Wind  
Wind Speed 6 mph (NE)    
Max Wind Speed 13 mph    
Max Gust Speed 20 mph    
Visibility 10 miles    
Events Rain    
Averages and records for this station are not official NWS values.
T = Trace of Precipitation, MM = Missing Value Source: NWS Daily Summary

Daily Weather History Graph

Daily Weather History Graph

Search for Another Location

Airport:

Trip Planner

Search our weather history database for the weather conditions in past years. The results will help you decide how hot, cold, wet, or windy it might be!

Date:

Astronomy

Feb. 18, 2012 Rise Set
Actual Time 6:54 AM CST 5:58 PM CST
Civil Twilight 6:29 AM CST 6:23 PM CST
Nautical Twilight 5:59 AM CST 6:53 PM CST
Astronomical Twilight 5:30 AM CST 7:22 PM CST
Moon 4:28 AM CST (2/18) 3:01 PM CST (2/18)
Length of Visible Light 11h 54m
Length of Day
11h 03m
Waning Crescent, 11% of the Moon is Illuminated
Feb 18
Waning Crescent
Feb 21
New
Feb 29
First Quarter
Mar 8
Full
Mar 14
Last Quarter

Hourly Weather History & Observations

Time (CST) Temp. Dew Point Humidity Pressure Visibility Wind Dir Wind Speed Gust Speed Precip Events Conditions
12:53 AM 48.0 °F 42.1 °F 80% 30.09 in 10.0 mi Calm Calm - N/A   Scattered Clouds
1:53 AM 46.9 °F 42.1 °F 83% 30.06 in 9.0 mi East 4.6 mph - N/A   Clear
2:53 AM 46.9 °F 41.0 °F 80% 30.05 in 10.0 mi ENE 6.9 mph - N/A   Scattered Clouds
3:53 AM 48.0 °F 39.9 °F 74% 30.03 in 10.0 mi ENE 8.1 mph - N/A   Partly Cloudy
4:53 AM 46.9 °F 39.0 °F 74% 30.00 in 10.0 mi ENE 6.9 mph - N/A   Clear
5:53 AM 46.9 °F 37.9 °F 71% 30.02 in 10.0 mi ENE 8.1 mph - N/A   Mostly Cloudy
6:53 AM 46.9 °F 37.9 °F 71% 30.05 in 10.0 mi Calm Calm - N/A   Overcast
7:53 AM 46.9 °F 37.9 °F 71% 30.06 in 10.0 mi Calm Calm - N/A   Overcast
8:53 AM 46.9 °F 37.9 °F 71% 30.08 in 10.0 mi Calm Calm - N/A   Overcast
9:53 AM 48.0 °F 36.0 °F 63% 30.07 in 10.0 mi East 3.5 mph - N/A   Overcast
10:53 AM 48.9 °F 35.1 °F 59% 30.04 in 10.0 mi ENE 5.8 mph - N/A   Overcast
11:53 AM 48.0 °F 39.0 °F 71% 30.00 in 10.0 mi ENE 11.5 mph - 0.00 in Rain Light Rain
12:53 PM 48.9 °F 37.0 °F 64% 29.97 in 10.0 mi ENE 8.1 mph - 0.00 in   Overcast
1:53 PM 52.0 °F 37.0 °F 57% 29.91 in 10.0 mi ENE 12.7 mph - 0.00 in Rain Light Rain
2:53 PM 52.0 °F 33.1 °F 49% 29.93 in 10.0 mi ENE 12.7 mph - 0.00 in   Overcast
3:53 PM 51.1 °F 33.1 °F 50% 29.92 in 10.0 mi ENE 10.4 mph - 0.00 in   Overcast
4:53 PM 51.1 °F 34.0 °F 52% 29.90 in 10.0 mi ENE 12.7 mph 19.6 mph 0.00 in Rain Light Rain
5:53 PM 50.0 °F 34.0 °F 54% 29.87 in 10.0 mi NE 12.7 mph 19.6 mph 0.00 in   Overcast
6:53 PM 48.9 °F 35.1 °F 59% 29.92 in 10.0 mi North 6.9 mph - 0.00 in Rain Light Rain
7:53 PM 46.9 °F 37.0 °F 68% 29.94 in 10.0 mi North 6.9 mph 17.3 mph 0.01 in Rain Light Rain
8:53 PM 48.0 °F 36.0 °F 63% 29.95 in 10.0 mi North 10.4 mph 16.1 mph 0.00 in Rain Light Rain
9:53 PM 48.9 °F 35.1 °F 59% 29.97 in 10.0 mi North 6.9 mph - 0.00 in Rain Light Rain
10:53 PM 48.0 °F 35.1 °F 61% 29.98 in 10.0 mi NE 5.8 mph - 0.00 in Rain Light Rain
11:53 PM 46.9 °F 35.1 °F 63% 29.98 in 10.0 mi Variable 6.9 mph - 0.00 in Rain Light Rain